Regional Weather Roundup
Issued by NWS Nashville, TN

Home | Current Version | Previous Version | Text Only | Print | Product List | Glossary On
Versions: 1 2 3 4 5 6 7 8 9 10 11 12 13 14 15 16 17 18 19 20 21 22 23 24 25 26 27
000
ASUS44 KOHX 171410
RWROHX
MIDDLE TENNESSEE HOURLY WEATHER ROUNDUP
NATIONAL WEATHER SERVICE NASHVILLE TN
800 AM CST TUE JAN 17 2017

NOTE: "FAIR" INDICATES FEW OR NO CLOUDS BELOW 12,000 FEET WITH
NO SIGNIFICANT WEATHER AND/OR OBSTRUCTIONS TO VISIBILITY.

* THESE REPORTS ARE NOT UNDER NWS QUALITY CONTROL AND MAY NOT
  REPORT WEATHER SUCH AS PRECIPITATION AND FOG.


TNZ005>011-023>034-057-059-062>066-078-080-171500
...NORTHERN MIDDLE TENNESSEE...

CITY           SKY/WX    TMP DP  RH WIND       PRES   REMARKS
CLARKSVILLE    CLOUDY    62  58  86 SW8       30.00S
CROSSVILLE     LGT RAIN  58  54  86 S7        30.12R
GALLATIN       CLOUDY    63  61  94 S7        30.04F FOG
DICKSON        CLOUDY    59  58  96 SW7       30.02R
LEBANON        CLOUDY    61  60  96 S9        30.01R
NASHVILLE      LGT RAIN  63  61  93 S10       30.02S FOG
PORTLAND       PTSUNNY   63  61  94 SW13G21   30.01S FOG
SMYRNA         LGT RAIN  63  61  93 S9        30.02F FOG
WEST NASHVILLE CLOUDY    61  61 100 SW14      30.02R
$$
TNZ056-058-060-061-075>077-079-093>097-171500
...SOUTHERN MIDDLE TENNESSEE...

CITY           SKY/WX    TMP DP  RH WIND       PRES   REMARKS
COLUMBIA       CLOUDY   N/A N/A N/A SW13      30.03R
FAYETTEVILLE   CLOUDY    63  61  94 S16       30.09R
MCMINNVILLE    CLOUDY    63  57  82 S9        30.08S
MURFREESBORO   CLOUDY    62  60  93 S12       30.03S
SHELBYVILLE    CLOUDY    64  61  88 S14       30.06F
TULLAHOMA      CLOUDY    63  57  82 S16       30.09S
WINCHESTER     PTSUNNY   63  57  82 SW9       30.11R
$$


...KEY TO REMARKS...
VSB - VISIBILITY IN MILES
WCI - WIND CHILL INDEX
HX  - HEAT INDEX





USA.gov is the U.S. government's official web portal to all federal, state and local government web resources and services.